Location: Newark
(37.3333°N, 6.0167°W)
Time: 00:46:33
(UTC+00:00)

N. Korean satellite - Visible Passes

Search period start: 21 October 2019 00:00
Search period end: 31 October 2019 00:00
Orbit: 455 x 508 km, 97.2° (Epoch: 20 October)

Date Brightness Start Highest point End Pass type
(mag) Time Alt. Az. Time Alt. Az. Time Alt. Az.
21 Oct 7.8 05:59:36 10° NNE 06:03:08 47° E 06:06:41 10° S visible
21 Oct 8.9 18:06:38 10° SSW 18:09:40 29° W 18:12:44 10° NW visible
22 Oct 9.5 05:34:52 10° NE 05:37:46 22° E 05:40:40 10° SSE visible
23 Oct 10.5 05:11:34 10° E 05:12:18 10° E 05:13:03 10° ESE visible
24 Oct 9.9 18:24:51 10° SW 18:27:11 17° W 18:29:34 10° NW visible
25 Oct 8.4 05:51:51 10° NNE 05:55:17 37° E 05:58:44 10° SSE visible
25 Oct 8.3 17:58:33 10° SSW 18:01:46 38° W 18:05:01 10° NNW visible
26 Oct 9.9 05:27:19 10° NE 05:29:53 18° E 05:32:27 10° SE visible
27 Oct 10.6 18:44:22 10° W 18:44:44 10° W 18:45:06 10° W visible
28 Oct 7.1 06:09:04 10° NNE 06:12:45 67° E 06:16:26 10° S visible
28 Oct 9.4 18:16:31 10° SSW 18:19:14 22° W 18:22:01 10° NW visible
29 Oct 8.9 05:44:06 10° NE 05:47:23 30° E 05:50:41 10° SSE visible
30 Oct 10.1 05:19:51 10° ENE 05:21:56 14° E 05:24:03 10° SE visible
